CAPE
3 2 1 1 1 1 1 1 0 0 0 0 0 0 0 0 0 0 0 0 0 0 756 202 129 76 502 584 522 85 34 10 6 13 178 373 294 198 147 74 49 58 22 28 79
1 1 1 1 1 0 0 0 0 0 0 0 0 0 0 0 0 0 0 0 0 128 0 0 6 150 274 489 525 321 39 26 1 9 158 369 336 243 188 68 85 74 45 61 163
0 0 0 1 0 0 0 0 0 0 0 0 0 0 0 0 0 0 0 0 0 0 0 21 273 119 167 507 469 379 41 33 0 0 214 374 404 288 220 22 37 51 32 106 148
1 0 0 0 0 0 0 0 0 0 0 0 0 0 0 0 0 0 0 0 0 0 0 0 259 57 0 0 380 79 22 72 1 0 69 288 435 323 203 57 51 89 51 148 156
0 0 0 0 0 0 0 0 0 0 0 0 1 0 0 0 0 0 0 0 43 0 0 0 0 0 0 0 0 4 0 0 0 8 45 328 407 351 292 170 138 99 129 133 231
0 0 0 0 0 0 0 0 0 0 0 0 2 1 0 0 0 0 0 0 0 0 0 0 0 0 0 0 0 0 0 0 0 0 55 232 365 380 398 248 137 73 88 158 218
2 0 0 0 0 0 0 0 0 0 0 0 2 0 0 0 0 0 0 0 0 0 0 0 0 0 0 0 0 0 0 0 0 0 9 241 336 393 407 300 165 105 104 147 183
0 0 0 0 0 0 0 0 0 0 0 0 2 0 0 0 0 0 0 0 0 0 0 0 0 0 0 0 0 0 0 0 0 0 24 186 81 349 404 351 280 133 105 116 182
0 0 0 0 0 0 0 0 0 0 0 1 0 0 0 0 0 0 0 0 0 0 0 0 0 0 0 0 0 0 0 0 0 0 0 96 5 36 363 349 361 201 139 120 161
0 0 0 0 0 0 0 0 0 0 0 0 0 0 0 0 0 0 0 0 0 0 0 0 0 0 0 0 0 0 0 0 0 0 0 0 0 0 163 321 362 330 197 193 215
0 0 0 0 0 0 0 0 0 0 0 0 0 0 0 0 0 0 0 0 0 0 0 0 0 0 0 0 0 0 0 0 0 0 0 0 0 0 131 265 321 407 294 243 252
0 0 0 0 0 0 0 0 0 0 0 0 0 0 0 0 0 0 0 0 0 0 0 0 0 0 0 0 0 0 0 0 0 0 0 0 0 0 100 110 183 384 376 297 322
0 0 0 0 0 0 0 0 0 0 0 0 0 0 0 0 0 0 0 0 0 0 0 0 0 0 0 0 0 0 0 0 0 0 0 0 0 0 137 194 239 269 371 374 350
0 0 0 0 0 0 0 0 0 0 0 0 0 0 0 0 0 0 0 0 0 0 0 0 0 0 0 0 0 0 0 0 0 0 0 0 0 0 6 96 164 128 151 266 260
0 0 0 0 0 0 0 0 0 0 0 0 0 0 0 0 0 0 0 0 0 0 0 0 0 0 0 0 0 0 0 0 0 0 0 0 0 0 0 10 94 179 184 134 106
0 0 0 0 0 0 0 0 0 0 0 0 0 0 0 0 0 0 0 0 0 0 0 0 0 0 0 0 0 0 0 0 0 0 0 0 0 0 0 0 21 120 193 201 130
0 0 0 0 0 0 0 0 0 0 0 0 0 0 0 0 0 0 0 0 0 0 0 0 0 0 0 0 0 0 0 0 0 0 0 0 0 0 0 0 0 0 47 110 172
0 0 0 0 0 0 0 0 0 0 0 0 0 0 0 0 0 0 0 0 0 0 0 0 0 0 0 0 0 0 0 0 0 0 0 0 0 0 0 0 0 0 7 18 23
0 0 0 0 0 0 0 0 0 0 0 0 0 0 0 0 0 0 0 0 0 0 0 0 0 0 0 0 0 0 0 0 0 0 0 0 0 0 0 0 0 0 0 0 0
0 0 0 0 0 0 0 0 0 0 0 0 0 0 0 0 0 0 0 0 0 0 0 0 0 0 0 0 0 0 0 0 0 0 0 0 0 0 0 0 0 0 0 0 0
0 0 0 0 0 0 0 0 0 0 0 0 0 0 0 0 0 0 0 0 0 0 0 0 0 0 0 0 0 0 0 0 0 0 0 0 0 0 0 0 0 0 0 0 0
0 0 0 0 0 0 0 0 0 0 0 0 0 0 0 0 0 0 0 0 0 0 0 0 0 0 0 0 0 0 0 0 0 0 0 0 0 0 0 0 0 0 0 0 0
0 0 0 0 0 0 0 0 1 0 0 0 0 0 0 0 0 0 0 0 0 0 0 0 0 0 0 0 0 0 0 0 0 0 0 0 0 0 0 0 0 0 0 0 0
0 0 0 0 0 0 0 0 0 9 0 0 0 0 0 0 0 0 0 0 0 0 0 0 0 0 0 0 0 0 0 0 0 0 0 0 0 0 0 0 0 0 0 0 0
0 0 2 0 0 1 0 0 1 0 0 2 0 0 0 0 0 0 0 0 0 0 0 0 0 0 0 0 0 0 0 0 0 0 0 0 0 0 0 0 0 0 0 0 0
2 7 3 0 6 5 0 0 2 0 0 0 1 1 0 0 0 0 0 0 0 0 0 0 0 0 0 0 0 0 0 0 0 0 0 0 0 0 0 0 0 0 0 0 0
3 10 5 0 0 0 1 0 0 0 0 5 0 0 0 0 0 0 0 0 0 0 0 0 0 0 0 0 0 0 0 0 0 0 0 0 0 0 0 0 0 0 0 0 0
CIN
0 0 0 0 0 0 0 0 0 0 0 0 0 0 0 0 0 0 0 0 0 0 -158 -284 -298 -369 -179 -146 -157 -293 -151 -139 -138 -109 -88 -106 -92 -147 -159 -223 -216 -224 -279 -298 -271
0 0 0 0 0 0 0 0 0 0 0 0 0 0 0 0 0 0 0 0 0 -181 0 0 -83 -280 -201 -155 -151 -161 -161 -133 -22 -92 -86 -112 -98 -141 -157 -231 -237 -238 -283 -309 -217
0 0 0 0 0 0 0 0 0 0 0 0 0 0 0 0 0 0 0 0 0 0 0 -288 -173 -246 -200 -144 -175 -180 -115 -132 0 0 -85 -82 -124 -155 -147 -188 -192 -204 -304 -262 -239
0 0 0 0 0 0 0 0 0 0 0 0 0 0 0 0 0 0 0 0 -21 0 0 0 -121 -201 0 0 -205 -216 -244 -170 -79 0 -119 -97 -126 -160 -135 -149 -195 -322 -331 -306 -246
0 0 0 0 0 0 0 0 0 0 0 0 0 0 0 0 0 0 0 0 -119 0 0 0 0 0 0 0 0 -31 0 0 0 -234 -120 -86 -99 -114 -136 -156 -247 -341 -344 -314 -228
0 0 0 0 0 0 0 0 0 0 0 0 0 0 0 0 0 0 0 0 0 0 0 0 0 0 0 0 0 0 0 0 0 0 -140 -100 -86 -120 -125 -209 -283 -344 -322 -283 -254
0 0 0 0 0 0 0 0 0 0 0 0 0 0 0 0 0 0 0 0 0 0 0 0 0 0 0 0 0 0 0 0 0 0 -36 -97 -102 -134 -114 -211 -252 -301 -290 -249 -244
0 0 0 0 0 0 0 0 0 0 0 0 0 0 0 0 0 0 0 0 0 0 0 0 0 0 0 0 0 0 0 0 0 0 -132 -135 -124 -96 -143 -187 -229 -292 -300 -259 -230
0 0 0 0 0 0 0 0 0 0 0 0 0 0 0 0 0 0 0 0 0 0 0 0 0 0 0 0 0 0 0 0 0 0 0 -171 -97 -148 -184 -192 -189 -268 -289 -250 -229
0 0 0 0 0 0 0 0 0 0 0 0 0 0 0 0 0 0 0 0 0 0 0 0 0 0 0 0 0 0 0 0 0 0 0 0 0 0 -212 -209 -192 -236 -269 -252 -250
0 0 0 0 0 0 0 0 0 0 0 0 0 0 0 0 0 0 0 0 0 0 0 0 0 0 0 0 0 0 0 0 0 0 0 0 0 0 -242 -208 -203 -258 -286 -260 -255
0 0 0 0 0 0 0 0 0 0 0 0 0 0 0 0 0 0 0 0 0 0 0 0 0 0 0 0 0 0 0 0 0 0 0 0 0 0 -241 -229 -232 -275 -297 -253 -244
0 0 0 0 0 0 0 0 0 0 0 0 0 0 0 0 0 0 0 0 0 0 0 0 0 0 0 0 0 0 0 0 0 0 0 0 0 0 -250 -221 -221 -262 -280 -246 -225
0 0 0 0 0 0 0 0 0 0 0 0 0 0 0 0 0 0 0 0 0 0 0 0 0 0 0 0 0 0 0 0 0 0 0 0 0 0 -221 -244 -242 -236 -318 -308 -249
0 0 0 0 0 0 0 0 0 0 0 0 0 0 0 0 0 0 0 0 0 0 0 0 0 0 0 0 0 0 0 0 0 0 0 0 0 0 0 -245 -243 -262 -302 -346 -342
0 0 0 0 0 0 0 0 0 0 0 0 0 0 0 0 0 0 0 0 0 0 0 0 0 0 0 0 0 0 0 0 0 0 0 0 0 0 0 0 -241 -265 -307 -321 -356
0 0 0 0 0 0 0 0 0 0 0 0 0 0 0 0 0 0 0 0 0 0 0 0 0 0 0 0 0 0 0 0 0 0 0 0 0 0 0 0 0 -6 -250 -322 -375
0 0 0 0 0 0 0 0 0 0 0 0 0 0 0 0 0 0 0 0 0 0 0 0 0 0 0 0 0 0 0 0 0 0 0 0 0 0 0 0 0 0 -213 -303 -356
0 0 0 0 0 0 0 0 0 0 0 0 0 0 0 0 0 0 0 0 0 0 0 0 0 0 0 0 0 0 0 0 0 0 0 0 0 0 0 0 0 0 0 0 0
0 0 0 0 0 0 0 0 0 0 0 0 0 0 0 0 0 0 0 0 0 0 0 0 0 0 0 0 0 0 0 0 0 0 0 0 0 0 0 0 0 0 0 0 0
0 0 0 0 0 0 0 0 0 0 0 0 0 0 0 0 0 0 0 0 0 0 0 0 0 0 0 0 0 0 0 0 0 0 0 0 0 0 0 0 0 0 0 0 0
0 0 0 0 0 0 0 0 0 0 0 0 0 0 0 0 0 0 0 0 0 0 0 0 0 0 0 0 0 0 0 0 0 0 0 0 0 0 0 0 0 0 0 0 0
0 0 0 0 0 0 0 0 -9 0 0 0 0 0 0 0 0 0 0 0 0 0 0 0 0 0 0 0 0 0 0 0 0 0 0 0 0 0 0 0 0 0 0 0 0
0 0 0 0 0 0 0 0 -12 -49 0 0 0 0 0 0 0 0 0 0 0 0 0 0 0 0 0 0 0 0 0 0 0 0 0 0 0 0 0 0 0 0 0 0 0
0 -5 -20 0 0 -3 0 0 0 0 0 0 0 0 0 0 0 0 0 0 0 0 0 0 0 0 0 0 0 0 0 0 0 0 0 0 0 0 0 0 0 0 0 0 0
-3 -2 0 0 -6 -3 0 0 0 0 0 0 0 0 0 0 0 0 0 0 0 0 0 0 0 0 0 0 0 0 0 0 0 0 0 0 0 0 0 0 0 0 0 0 0
-15 -4 -2 -1 0 -3 -1 0 -1 0 0 -2 0 0 0 -5 0 0 0 0 0 0 0 0 0 0 0 0 0 0 0 0 0 0 0 0 0 0 0 0 0 0 0 0 0
Wind_Speed
30 30 30 30 30 30 30 30 30 29 28 27 28 29 30 30 30 25 30 17 12 10 3 5 2 6 3 6 13 15 11 16 16 18 12 15 9 17 7 18 21 23 15 21 26
32 32 32 31 31 31 30 30 30 30 29 29 27 28 30 29 29 32 27 4 7 15 11 13 5 7 7 4 9 10 11 15 18 21 12 15 14 16 13 15 8 7 12 20 23
34 34 33 33 33 33 32 32 31 30 29 29 29 29 29 28 28 21 19 7 15 17 10 8 6 5 11 6 3 10 25 23 16 17 15 14 14 15 13 14 17 17 19 25 26
35 36 35 35 35 35 34 33 32 30 29 29 29 29 29 18 20 14 16 6 14 15 12 12 12 11 14 10 1 15 28 25 20 16 11 13 14 15 13 9 20 19 24 25 27
37 37 37 37 38 37 36 35 34 32 30 28 27 27 21 19 15 10 15 7 9 11 20 17 19 11 13 17 12 7 29 23 19 16 15 11 16 15 18 16 17 23 24 24 25
39 39 39 39 40 40 39 38 36 34 32 29 27 22 17 17 5 7 7 4 7 14 15 18 18 9 20 18 5 16 28 29 24 15 11 10 10 15 20 7 15 21 24 26 26
40 40 40 41 41 42 42 40 38 36 33 30 18 11 16 20 10 11 8 5 11 14 13 11 12 14 19 25 29 32 31 29 24 19 9 7 5 22 17 14 17 20 21 23 28
42 42 42 42 42 44 43 41 39 35 31 20 7 13 9 22 20 22 9 4 13 7 8 9 10 9 17 22 23 23 22 24 19 10 12 9 19 22 17 16 20 21 22 26 31
43 44 44 44 44 45 42 40 30 24 17 9 12 16 20 20 14 6 11 4 11 12 9 9 13 16 20 12 33 22 20 10 31 10 23 19 23 19 15 19 21 24 23 27 31
45 45 46 46 46 45 42 33 22 19 16 18 18 21 20 14 12 8 4 12 6 9 3 5 13 19 19 20 18 19 16 10 28 21 28 24 25 19 17 21 23 27 25 28 29
46 47 47 48 48 44 40 25 29 27 27 26 22 22 19 15 16 8 3 11 3 6 13 7 17 28 20 26 20 19 20 14 11 18 22 29 27 21 12 21 23 29 27 29 30
48 48 48 49 49 37 29 25 24 29 39 36 42 43 36 21 20 11 2 8 9 12 11 6 29 19 23 26 28 31 34 40 29 28 29 30 31 13 15 24 31 30 29 31 31
49 49 49 49 46 29 29 24 29 31 36 38 29 31 28 20 25 15 9 9 12 12 22 24 14 13 16 16 19 31 41 27 28 24 27 26 33 22 23 28 38 38 32 34 34
50 50 50 50 29 38 31 28 36 27 38 37 28 26 21 16 30 22 14 13 16 20 12 12 18 13 15 26 18 24 33 25 26 26 35 22 35 28 25 29 28 38 36 34 37
51 51 49 44 37 38 32 37 36 21 42 25 23 16 14 18 22 22 20 21 16 15 16 12 12 14 22 21 14 27 21 25 26 31 35 36 31 18 8 23 31 39 39 36 37
52 52 52 38 35 32 36 38 23 31 43 29 23 23 20 23 21 17 23 23 20 20 22 19 16 13 14 12 13 17 17 23 27 32 45 38 18 19 19 28 36 44 43 38 37
52 53 47 33 37 34 33 26 32 41 31 32 30 26 28 26 24 20 23 28 24 23 22 21 20 18 16 15 13 16 16 20 29 29 46 22 34 41 18 21 33 36 44 40 37
53 51 38 30 36 33 25 28 44 36 38 31 30 32 28 26 26 25 22 30 29 26 22 25 28 23 18 16 17 15 19 14 18 32 41 29 47 41 42 36 38 38 41 43 41
50 42 34 31 36 27 26 38 38 36 35 37 35 33 33 29 28 28 27 30 30 27 30 28 36 22 22 19 16 20 20 18 25 24 34 31 46 41 33 39 43 39 40 38 35
44 37 34 33 36 27 29 38 35 29 34 33 38 31 37 33 30 27 27 27 34 30 28 29 31 30 22 24 24 21 18 19 19 25 34 36 39 42 34 49 46 44 37 36 24
36 36 30 40 26 26 35 36 37 35 36 34 36 38 34 34 31 30 29 24 25 31 28 31 31 26 21 27 25 25 24 23 20 24 27 37 38 34 38 28 38 47 43 37 21
32 38 32 34 30 27 32 35 34 37 32 34 35 36 37 34 34 31 31 26 24 27 31 30 33 42 32 26 30 32 31 31 31 30 41 41 40 22 28 17 36 42 48 46 28
37 29 26 27 31 32 31 30 29 30 33 34 35 31 30 33 37 32 30 25 24 24 27 29 35 40 40 41 32 33 35 31 33 35 29 22 38 38 35 27 35 37 34 37 30
30 32 28 24 26 29 32 31 30 28 28 29 32 29 34 36 32 35 34 28 28 26 25 26 32 36 43 38 37 41 41 35 34 38 47 52 49 35 33 37 38 37 44 42 34
24 26 25 30 30 29 30 28 30 29 25 24 27 28 34 40 39 40 37 36 31 28 28 28 37 37 37 41 41 45 50 51 47 39 51 47 52 50 40 39 37 33 40 36 44
22 23 22 27 26 29 28 25 27 28 28 31 29 28 31 36 37 41 37 37 38 34 34 33 40 38 45 41 45 50 50 50 52 50 50 58 52 37 49 42 38 41 36 27 25
18 17 17 23 26 27 25 25 29 30 26 25 28 32 31 27 33 37 40 42 42 41 39 40 41 42 51 43 47 60 51 51 48 46 45 57 46 38 36 30 21 37 34 17 19
Wind_Direction
317 314 310 306 302 299 295 292 289 284 279 276 280 283 287 289 283 297 235 197 168 151 154 146 215 108 59 23 296 267 349 126 222 165 265 76 16 59 313 72 147 152 84 120 124
318 315 311 307 304 301 297 293 289 285 281 280 274 280 286 290 292 268 230 266 166 151 148 156 200 139 284 345 341 332 283 255 212 198 66 86 80 80 14 63 298 327 62 118 124
318 314 311 308 305 302 299 294 289 285 280 277 277 279 287 293 294 297 307 123 155 157 163 168 178 236 273 317 8 316 186 211 245 172 124 104 96 91 52 78 118 108 112 131 134
316 313 311 309 306 302 298 292 287 281 277 276 274 279 294 335 308 317 315 52 145 152 158 155 152 246 262 276 341 283 210 249 229 221 120 138 115 118 108 350 151 116 122 132 142
317 313 311 309 306 302 297 290 285 279 273 268 267 276 319 316 192 330 326 34 137 158 162 163 163 239 257 267 282 159 214 237 200 158 127 111 147 129 151 253 90 110 124 134 142
318 316 313 310 307 302 296 290 283 277 269 261 256 308 327 239 42 138 332 109 152 165 165 162 171 215 259 269 247 276 216 224 224 171 112 111 135 136 162 54 96 118 132 141 146
319 317 314 311 308 304 298 291 285 277 266 254 236 333 321 203 354 347 84 99 136 160 169 174 249 172 262 257 255 244 243 249 266 185 110 80 93 173 198 124 127 136 140 145 157
323 319 315 311 309 306 301 291 287 281 279 314 341 317 197 288 287 200 106 66 131 156 246 183 244 237 263 268 265 266 269 265 282 134 160 128 178 181 157 147 153 151 151 159 169
323 321 318 314 311 309 304 298 302 314 331 2 327 315 270 291 302 193 166 127 140 146 270 276 255 259 259 230 235 267 266 223 232 147 240 163 204 184 161 162 163 166 160 168 173
324 323 320 317 314 311 306 307 322 326 327 313 309 300 296 312 312 317 179 156 162 156 241 243 264 254 252 186 196 254 263 269 200 268 234 189 205 297 164 168 168 171 167 171 175
324 323 321 318 316 310 315 320 303 298 296 286 294 289 299 306 296 315 285 157 216 177 178 199 183 193 241 247 254 263 263 268 288 279 274 241 219 194 164 166 167 172 169 175 182
324 322 321 318 316 316 325 317 317 304 283 280 265 256 264 289 289 282 161 195 199 191 173 215 196 191 251 250 248 251 251 231 265 267 265 263 242 171 169 178 179 176 176 177 184
325 322 321 319 313 324 316 321 322 313 289 284 284 278 277 264 268 258 208 237 217 201 182 187 288 195 194 234 233 251 207 257 262 274 266 275 259 277 188 245 203 199 187 188 188
324 322 322 320 320 315 306 314 317 312 287 283 285 285 277 274 265 249 216 231 257 197 230 223 190 178 198 192 199 204 247 260 263 268 258 275 258 270 191 189 185 197 193 189 193
324 322 322 322 312 307 306 307 310 308 277 290 283 292 287 269 279 263 230 247 235 239 234 226 213 203 188 196 212 249 261 258 263 265 263 257 267 281 262 186 193 197 198 193 192
322 321 320 321 316 309 306 302 300 281 270 279 284 279 275 271 278 277 234 251 250 252 257 255 274 218 204 250 214 249 268 264 266 264 243 236 207 213 188 194 202 210 205 198 194
322 321 321 323 312 315 308 295 273 267 281 276 274 280 275 269 267 265 241 228 232 242 241 254 247 272 260 227 252 229 242 257 262 258 226 259 229 217 226 193 195 194 204 203 197
324 323 323 323 319 315 304 274 264 274 270 282 279 277 269 272 267 265 250 233 241 246 249 246 256 233 254 238 235 228 229 240 240 260 252 258 227 240 214 234 210 209 207 212 209
329 327 321 323 323 318 290 264 269 272 278 276 272 268 266 268 269 262 258 245 243 246 253 251 255 268 245 253 225 248 220 223 269 277 264 264 239 249 250 244 223 214 216 207 200
332 327 323 329 322 306 285 267 269 280 286 279 264 269 263 265 262 261 257 266 250 254 260 257 259 254 247 248 246 246 248 243 240 204 214 259 253 246 252 236 233 231 207 206 195
337 322 331 329 328 302 279 273 273 282 284 272 267 266 265 263 263 258 258 265 267 257 258 255 256 258 244 240 231 244 243 255 253 260 206 233 248 254 240 249 211 217 211 206 196
338 317 335 337 311 303 289 284 284 276 283 273 269 266 262 262 260 257 254 258 277 269 254 258 256 249 251 258 253 244 248 246 252 258 254 253 232 256 200 220 252 245 236 235 262
333 331 347 344 306 302 297 289 283 283 277 271 265 267 265 259 255 258 257 264 275 272 261 263 253 251 249 252 254 252 249 246 249 261 241 238 235 222 240 262 250 253 253 252 259
352 329 335 340 330 315 303 288 285 285 277 278 271 267 263 259 260 256 258 261 269 268 270 265 255 251 249 251 253 253 253 252 245 247 240 222 240 262 260 247 241 251 246 257 263
13 352 344 320 319 316 314 297 286 282 277 280 270 271 266 256 256 256 259 263 266 266 266 263 253 256 257 256 256 255 253 252 253 251 249 255 228 244 252 248 226 216 248 260 248
14 8 1 337 331 316 313 303 296 289 280 271 273 278 275 259 259 256 261 259 258 262 262 263 256 257 256 260 257 256 255 254 254 256 259 251 257 264 239 256 260 249 263 274 266
22 18 17 345 332 321 314 309 301 300 288 275 277 276 274 270 273 269 264 260 259 260 260 260 256 256 253 258 261 254 253 254 256 257 258 253 262 264 261 262 252 251 268 246 229